KHY3650 RPLC-RPSB

Flight info

Callsign KHY3650
Flight time 1h 14m
Altitude 17000
Route OLIVA2E OLIVA W16 MIA B462 IPATA W25 BATAY
Aircraft AT75/M-SDFGIRY/S

Departure

Time 2026-04-25 01:52
Airport Clark International Airport / Clark Air Base (RPLC)

Arrival

Time 2026-04-25 03:06
Airport Bantayan Airport (RPSB)
Time Latitude Longitude Altitude Speed Heading
2026-04-25 01:34 15.19349 120.55939 487 ft 0 kts 291°
2026-04-25 01:42 15.19345 120.55950 487 ft 2 kts 291°
2026-04-25 01:43 15.19343 120.55955 487 ft 2 kts 291°
2026-04-25 01:43 15.19334 120.55979 487 ft 2 kts 291°
2026-04-25 01:43 15.19329 120.55993 487 ft 1 kts 291°
2026-04-25 01:43 15.19326 120.56002 487 ft 2 kts 270°
2026-04-25 01:44 15.19332 120.56016 487 ft 2 kts 219°
2026-04-25 01:44 15.19339 120.56020 487 ft 0 kts 200°
2026-04-25 01:45 15.19337 120.56020 487 ft 0 kts 202°
2026-04-25 01:46 15.19323 120.56014 487 ft 2 kts 202°
2026-04-25 01:46 15.19299 120.56004 487 ft 4 kts 201°
2026-04-25 01:46 15.19262 120.55990 487 ft 6 kts 200°
2026-04-25 01:46 15.19217 120.55972 487 ft 7 kts 200°
2026-04-25 01:47 15.19164 120.55957 487 ft 8 kts 177°
2026-04-25 01:47 15.19126 120.55997 487 ft 8 kts 120°
2026-04-25 01:47 15.19079 120.56008 487 ft 7 kts 200°
2026-04-25 01:47 15.19027 120.55988 487 ft 8 kts 201°
2026-04-25 01:48 15.18970 120.55965 487 ft 9 kts 202°
2026-04-25 01:48 15.18930 120.55949 487 ft 9 kts 201°
2026-04-25 01:48 15.18867 120.55924 487 ft 9 kts 201°
2026-04-25 01:48 15.18779 120.55890 487 ft 10 kts 201°
2026-04-25 01:49 15.18712 120.55863 487 ft 10 kts 201°
2026-04-25 01:49 15.18644 120.55836 487 ft 10 kts 200°
2026-04-25 01:49 15.18576 120.55810 487 ft 10 kts 201°
2026-04-25 01:49 15.18509 120.55783 487 ft 10 kts 201°
2026-04-25 01:50 15.18440 120.55756 487 ft 9 kts 201°
2026-04-25 01:50 15.18371 120.55728 487 ft 13 kts 201°
2026-04-25 01:50 15.18268 120.55699 487 ft 15 kts 155°
2026-04-25 01:50 15.18203 120.55849 487 ft 31 kts 111°
2026-04-25 01:51 15.18156 120.55973 487 ft 22 kts 111°
2026-04-25 01:51 15.18335 120.56141 487 ft 65 kts 21°
2026-04-25 01:51 15.18949 120.56383 488 ft 121 kts 21°
2026-04-25 01:51 15.19789 120.56717 763 ft 134 kts 22°
2026-04-25 01:52 15.20697 120.57101 1049 ft 145 kts 21°
2026-04-25 01:52 15.21653 120.57472 1400 ft 151 kts 24°
2026-04-25 01:52 15.22659 120.57905 1661 ft 166 kts 23°
2026-04-25 01:52 15.23707 120.58338 2266 ft 160 kts 22°
2026-04-25 01:53 15.24685 120.58740 2739 ft 162 kts 22°
2026-04-25 01:53 15.25737 120.59199 3192 ft 166 kts 34°
2026-04-25 01:53 15.26335 120.60178 3666 ft 167 kts 81°
2026-04-25 01:53 15.26068 120.61335 4065 ft 171 kts 125°
2026-04-25 01:54 15.25082 120.61983 4424 ft 178 kts 168°
2026-04-25 01:54 15.23849 120.61841 4809 ft 182 kts 194°
2026-04-25 01:54 15.22593 120.61837 5193 ft 181 kts 166°
2026-04-25 01:54 15.21382 120.62142 5565 ft 183 kts 164°
2026-04-25 01:55 15.20136 120.62463 5947 ft 185 kts 164°
2026-04-25 01:55 15.18877 120.62788 6331 ft 187 kts 164°
2026-04-25 01:55 15.17615 120.63113 6710 ft 189 kts 164°
2026-04-25 01:55 15.16363 120.63538 7090 ft 190 kts 158°
2026-04-25 01:56 15.15136 120.64020 7463 ft 192 kts 157°
2026-04-25 01:56 15.13885 120.64524 7840 ft 194 kts 157°
2026-04-25 01:56 15.12623 120.65037 8216 ft 196 kts 157°
2026-04-25 01:56 15.11356 120.65553 8588 ft 197 kts 157°
2026-04-25 01:57 15.08780 120.66603 9333 ft 201 kts 158°
2026-04-25 01:57 15.07484 120.67131 9701 ft 203 kts 158°
2026-04-25 01:57 15.06163 120.67669 10073 ft 204 kts 158°
2026-04-25 01:58 15.04838 120.68208 10442 ft 206 kts 159°
2026-04-25 01:58 15.03466 120.68766 10532 ft 223 kts 159°
2026-04-25 01:58 15.01985 120.69370 10755 ft 230 kts 159°
2026-04-25 01:58 15.00509 120.69971 11093 ft 232 kts 159°
2026-04-25 01:59 14.99006 120.70584 11455 ft 232 kts 160°
2026-04-25 01:59 14.97506 120.71195 11817 ft 232 kts 160°
2026-04-25 01:59 14.96005 120.71804 12176 ft 232 kts 160°
2026-04-25 01:59 14.94562 120.72541 12508 ft 235 kts 147°
2026-04-25 02:00 14.93189 120.73438 12866 ft 235 kts 148°
2026-04-25 02:00 14.91817 120.74361 13213 ft 236 kts 148°
2026-04-25 02:00 14.90451 120.75288 13560 ft 237 kts 147°
2026-04-25 02:00 14.89076 120.76221 13906 ft 237 kts 147°
2026-04-25 02:01 14.87692 120.77162 14253 ft 238 kts 147°
2026-04-25 02:01 14.86321 120.78093 14582 ft 239 kts 147°
2026-04-25 02:01 14.84930 120.79037 14916 ft 240 kts 147°
2026-04-25 02:01 14.83536 120.79985 15240 ft 242 kts 147°
2026-04-25 02:02 14.82127 120.80942 15572 ft 243 kts 147°
2026-04-25 02:02 14.80718 120.81898 15903 ft 244 kts 147°
2026-04-25 02:02 14.79281 120.82873 16237 ft 245 kts 147°
2026-04-25 02:02 14.77863 120.83836 16559 ft 246 kts 147°
2026-04-25 02:03 14.76436 120.84805 16883 ft 247 kts 146°
2026-04-25 02:03 14.74973 120.85800 17005 ft 258 kts 146°
2026-04-25 02:03 14.73446 120.86837 17078 ft 268 kts 146°
2026-04-25 02:03 14.71853 120.87918 17090 ft 279 kts 146°
2026-04-25 02:04 14.70776 120.88649 17091 ft 286 kts 146°
2026-04-25 02:04 14.69075 120.89803 17089 ft 295 kts 146°
2026-04-25 02:04 14.67332 120.90985 17088 ft 302 kts 146°
2026-04-25 02:04 14.64973 120.92584 17086 ft 309 kts 146°
2026-04-25 02:05 14.63178 120.93800 17085 ft 313 kts 146°
2026-04-25 02:05 14.61332 120.95052 17084 ft 316 kts 146°
2026-04-25 02:05 14.59509 120.96286 17083 ft 319 kts 146°
2026-04-25 02:05 14.57642 120.97550 17083 ft 321 kts 146°
2026-04-25 02:06 14.55764 120.98820 17082 ft 322 kts 146°
2026-04-25 02:06 14.53892 121.00087 17082 ft 323 kts 146°
2026-04-25 02:06 14.52032 121.01347 17081 ft 323 kts 146°
2026-04-25 02:06 14.50324 121.02872 17093 ft 322 kts 129°
2026-04-25 02:07 14.48869 121.04604 17088 ft 323 kts 129°
2026-04-25 02:07 14.47417 121.06381 17084 ft 323 kts 129°
2026-04-25 02:07 14.45987 121.08145 17082 ft 323 kts 128°
2026-04-25 02:07 14.44542 121.09931 17082 ft 323 kts 128°
2026-04-25 02:08 14.43106 121.11744 17082 ft 323 kts 131°
2026-04-25 02:08 14.41684 121.13487 17080 ft 321 kts 132°
2026-04-25 02:08 14.40252 121.15248 17080 ft 320 kts 131°
2026-04-25 02:08 14.38826 121.17008 17081 ft 319 kts 131°
2026-04-25 02:09 14.37391 121.18780 17081 ft 319 kts 131°
2026-04-25 02:09 14.35981 121.20523 17081 ft 319 kts 131°
2026-04-25 02:09 14.34573 121.22262 17082 ft 319 kts 131°
2026-04-25 02:09 14.33152 121.24019 17083 ft 319 kts 131°
2026-04-25 02:10 14.31712 121.25797 17083 ft 320 kts 131°
2026-04-25 02:10 14.30300 121.27542 17083 ft 320 kts 131°
2026-04-25 02:10 14.28866 121.29314 17083 ft 320 kts 131°
2026-04-25 02:10 14.27446 121.31067 17083 ft 320 kts 131°
2026-04-25 02:11 14.26505 121.32228 17083 ft 321 kts 131°
2026-04-25 02:11 14.24590 121.34592 17083 ft 321 kts 131°
2026-04-25 02:11 14.23159 121.36358 17083 ft 321 kts 131°
2026-04-25 02:11 14.21729 121.38122 17083 ft 321 kts 131°
2026-04-25 02:12 14.20307 121.39878 17083 ft 321 kts 131°
2026-04-25 02:12 14.18884 121.41633 17083 ft 321 kts 131°
2026-04-25 02:12 14.17438 121.43415 17083 ft 321 kts 131°
2026-04-25 02:12 14.16002 121.45184 17083 ft 321 kts 131°
2026-04-25 02:13 14.15048 121.46361 17083 ft 321 kts 131°
2026-04-25 02:13 14.13617 121.48123 17084 ft 321 kts 131°
2026-04-25 02:13 14.11721 121.50459 17083 ft 322 kts 131°
2026-04-25 02:13 14.10278 121.52236 17083 ft 322 kts 131°
2026-04-25 02:14 14.08845 121.53983 17010 ft 321 kts 129°
2026-04-25 02:14 14.07422 121.55743 17000 ft 318 kts 129°
2026-04-25 02:14 14.06001 121.57497 16998 ft 316 kts 129°
2026-04-25 02:14 14.04602 121.59220 16998 ft 314 kts 129°
2026-04-25 02:15 14.03198 121.60947 16998 ft 313 kts 129°
2026-04-25 02:15 14.01817 121.62646 16998 ft 312 kts 129°
2026-04-25 02:15 14.00425 121.64359 16998 ft 311 kts 129°
2026-04-25 02:15 13.99035 121.66067 16999 ft 310 kts 130°
2026-04-25 02:16 13.97659 121.67758 16999 ft 310 kts 130°
2026-04-25 02:16 13.96285 121.69447 16999 ft 309 kts 130°
2026-04-25 02:16 13.94893 121.71157 16999 ft 309 kts 130°
2026-04-25 02:16 13.93513 121.72853 16999 ft 309 kts 130°
2026-04-25 02:17 13.92135 121.74545 16999 ft 309 kts 130°
2026-04-25 02:17 13.90773 121.76216 16999 ft 308 kts 130°
2026-04-25 02:17 13.89388 121.77917 17000 ft 308 kts 130°
2026-04-25 02:17 13.88015 121.79601 16999 ft 308 kts 130°
2026-04-25 02:18 13.86589 121.81267 16970 ft 309 kts 138°
2026-04-25 02:18 13.84908 121.82590 16994 ft 308 kts 143°
2026-04-25 02:18 13.83184 121.83907 16997 ft 308 kts 143°
2026-04-25 02:18 13.81462 121.85214 16998 ft 308 kts 143°
2026-04-25 02:19 13.79747 121.86512 16999 ft 308 kts 143°
2026-04-25 02:19 13.78016 121.87820 16999 ft 308 kts 143°
2026-04-25 02:19 13.76305 121.89111 16999 ft 308 kts 143°
2026-04-25 02:19 13.75147 121.89985 16999 ft 308 kts 143°
2026-04-25 02:20 13.72855 121.91715 16999 ft 308 kts 143°
2026-04-25 02:20 13.71125 121.93020 16999 ft 308 kts 143°
2026-04-25 02:20 13.69391 121.94327 16999 ft 308 kts 143°
2026-04-25 02:20 13.67672 121.95624 16999 ft 308 kts 143°
2026-04-25 02:21 13.65953 121.96919 16999 ft 308 kts 143°
2026-04-25 02:21 13.64226 121.98221 16999 ft 308 kts 143°
2026-04-25 02:21 13.62501 121.99521 16999 ft 308 kts 143°
2026-04-25 02:21 13.60765 122.00829 16999 ft 308 kts 143°
2026-04-25 02:22 13.59046 122.02123 16999 ft 308 kts 143°
2026-04-25 02:22 13.57333 122.03413 16999 ft 308 kts 143°
2026-04-25 02:22 13.55603 122.04716 16999 ft 308 kts 143°
2026-04-25 02:22 13.53881 122.06011 16999 ft 308 kts 143°
2026-04-25 02:23 13.52150 122.07313 16999 ft 308 kts 143°
2026-04-25 02:23 13.50428 122.08610 16999 ft 308 kts 143°
2026-04-25 02:23 13.48695 122.09914 16999 ft 308 kts 143°
2026-04-25 02:23 13.46981 122.11204 16999 ft 308 kts 143°
2026-04-25 02:24 13.45245 122.12510 16999 ft 308 kts 143°
2026-04-25 02:24 13.43526 122.13803 16999 ft 308 kts 143°
2026-04-25 02:24 13.41791 122.15107 16999 ft 308 kts 143°
2026-04-25 02:24 13.40055 122.16412 16999 ft 308 kts 143°
2026-04-25 02:25 13.38341 122.17700 16999 ft 308 kts 143°
2026-04-25 02:25 13.36597 122.19011 16999 ft 308 kts 143°
2026-04-25 02:25 13.34882 122.20300 16999 ft 308 kts 143°
2026-04-25 02:25 13.33166 122.21589 16999 ft 308 kts 143°
2026-04-25 02:26 13.31428 122.22894 16999 ft 308 kts 143°
2026-04-25 02:26 13.29703 122.24190 16999 ft 308 kts 143°
2026-04-25 02:26 13.27966 122.25494 16999 ft 308 kts 143°
2026-04-25 02:26 13.26258 122.26775 16999 ft 308 kts 143°
2026-04-25 02:27 13.24526 122.28076 16999 ft 308 kts 143°
2026-04-25 02:27 13.22788 122.29379 16999 ft 308 kts 143°
2026-04-25 02:27 13.21055 122.30679 16999 ft 308 kts 143°
2026-04-25 02:27 13.19351 122.31958 16999 ft 308 kts 143°
2026-04-25 02:28 13.17600 122.33271 16999 ft 308 kts 143°
2026-04-25 02:28 13.15878 122.34562 16999 ft 308 kts 143°
2026-04-25 02:28 13.14141 122.35865 16999 ft 308 kts 143°
2026-04-25 02:28 13.12420 122.37154 16999 ft 308 kts 143°
2026-04-25 02:29 13.10677 122.38460 16999 ft 308 kts 143°
2026-04-25 02:29 13.08946 122.39758 16999 ft 308 kts 143°
2026-04-25 02:29 13.07231 122.41042 16999 ft 308 kts 143°
2026-04-25 02:29 13.05490 122.42347 16999 ft 308 kts 143°
2026-04-25 02:30 13.03770 122.43635 16999 ft 308 kts 143°
2026-04-25 02:30 13.02038 122.44932 16999 ft 308 kts 143°
2026-04-25 02:30 13.00311 122.46225 16999 ft 308 kts 143°
2026-04-25 02:30 12.98574 122.47525 16999 ft 308 kts 143°
2026-04-25 02:31 12.96836 122.48825 16999 ft 308 kts 143°
2026-04-25 02:31 12.95111 122.50116 16999 ft 308 kts 143°
2026-04-25 02:31 12.93383 122.51409 16999 ft 308 kts 143°
2026-04-25 02:31 12.91658 122.52699 16999 ft 308 kts 143°
2026-04-25 02:32 12.89933 122.53989 16999 ft 308 kts 143°
2026-04-25 02:32 12.88203 122.55283 16999 ft 308 kts 143°
2026-04-25 02:32 12.86473 122.56576 16999 ft 308 kts 143°
2026-04-25 02:32 12.84745 122.57868 16999 ft 308 kts 143°
2026-04-25 02:33 12.83004 122.59168 16999 ft 308 kts 143°
2026-04-25 02:33 12.81281 122.60456 16999 ft 308 kts 143°
2026-04-25 02:33 12.79538 122.61758 16999 ft 308 kts 143°
2026-04-25 02:33 12.77813 122.63047 16999 ft 308 kts 143°
2026-04-25 02:34 12.76073 122.64346 16999 ft 308 kts 143°
2026-04-25 02:34 12.74359 122.65626 16999 ft 308 kts 143°
2026-04-25 02:34 12.72613 122.66930 16999 ft 308 kts 143°
2026-04-25 02:34 12.70883 122.68221 16999 ft 308 kts 143°
2026-04-25 02:35 12.69150 122.69514 16999 ft 308 kts 143°
2026-04-25 02:35 12.67414 122.70809 16999 ft 308 kts 143°
2026-04-25 02:35 12.65705 122.72084 16999 ft 308 kts 143°
2026-04-25 02:35 12.63981 122.73371 16999 ft 308 kts 143°
2026-04-25 02:36 12.62233 122.74674 16999 ft 308 kts 143°
2026-04-25 02:36 12.60501 122.75966 16999 ft 308 kts 143°
2026-04-25 02:36 12.58770 122.77257 16999 ft 308 kts 143°
2026-04-25 02:36 12.57052 122.78537 16999 ft 308 kts 143°
2026-04-25 02:37 12.55315 122.79832 16999 ft 308 kts 143°
2026-04-25 02:37 12.53580 122.81126 16999 ft 308 kts 143°
2026-04-25 02:37 12.51862 122.82405 16999 ft 308 kts 143°
2026-04-25 02:37 12.50125 122.83700 16999 ft 308 kts 143°
2026-04-25 02:38 12.48384 122.84996 16999 ft 308 kts 143°
2026-04-25 02:38 12.46664 122.86276 16999 ft 308 kts 143°
2026-04-25 02:38 12.44935 122.87563 16999 ft 308 kts 143°
2026-04-25 02:38 12.43212 122.88845 16999 ft 308 kts 143°
2026-04-25 02:39 12.41466 122.90146 16999 ft 308 kts 143°
2026-04-25 02:39 12.39748 122.91425 16999 ft 308 kts 143°
2026-04-25 02:39 12.38001 122.92725 16999 ft 308 kts 143°
2026-04-25 02:39 12.36288 122.93999 16999 ft 308 kts 143°
2026-04-25 02:40 12.34543 122.95297 16999 ft 308 kts 143°
2026-04-25 02:40 12.32822 122.96577 16999 ft 308 kts 143°
2026-04-25 02:40 12.31072 122.97877 16999 ft 308 kts 143°
2026-04-25 02:40 12.29341 122.99165 16999 ft 308 kts 143°
2026-04-25 02:41 12.27603 123.00456 16999 ft 308 kts 143°
2026-04-25 02:41 12.25879 123.01737 16999 ft 308 kts 143°
2026-04-25 02:41 12.24140 123.03029 16999 ft 308 kts 143°
2026-04-25 02:41 12.22425 123.04303 16999 ft 308 kts 143°
2026-04-25 02:42 12.20679 123.05599 16999 ft 308 kts 143°
2026-04-25 02:42 12.18950 123.06883 16999 ft 308 kts 143°
2026-04-25 02:42 12.17225 123.08165 16999 ft 308 kts 143°
2026-04-25 02:42 12.15490 123.09452 16999 ft 308 kts 143°
2026-04-25 02:43 12.13763 123.10735 16999 ft 308 kts 143°
2026-04-25 02:43 12.12020 123.12028 16999 ft 308 kts 143°
2026-04-25 02:43 12.10282 123.13318 16999 ft 308 kts 143°
2026-04-25 02:43 12.08560 123.14596 16999 ft 308 kts 143°
2026-04-25 02:44 12.06826 123.15882 16999 ft 308 kts 143°
2026-04-25 02:44 12.05101 123.17162 16999 ft 308 kts 143°
2026-04-25 02:44 12.03351 123.18459 16999 ft 308 kts 143°
2026-04-25 02:44 12.01636 123.19731 16999 ft 308 kts 143°
2026-04-25 02:45 11.99886 123.21029 16999 ft 308 kts 143°
2026-04-25 02:45 11.98163 123.22306 16999 ft 308 kts 143°
2026-04-25 02:45 11.96473 123.23558 16999 ft 308 kts 143°
2026-04-25 02:45 11.94734 123.24847 16999 ft 308 kts 143°
2026-04-25 02:46 11.93013 123.26122 16999 ft 308 kts 143°
2026-04-25 02:46 11.91269 123.27413 16999 ft 308 kts 143°
2026-04-25 02:46 11.89554 123.28683 16999 ft 308 kts 143°
2026-04-25 02:46 11.87803 123.29980 16999 ft 308 kts 143°
2026-04-25 02:47 11.86067 123.31265 16999 ft 308 kts 143°
2026-04-25 02:47 11.84336 123.32546 16999 ft 308 kts 143°
2026-04-25 02:47 11.82609 123.33825 16999 ft 308 kts 143°
2026-04-25 02:47 11.80863 123.35117 16999 ft 308 kts 144°
2026-04-25 02:48 11.79131 123.36395 17000 ft 308 kts 144°
2026-04-25 02:48 11.77365 123.37700 16999 ft 308 kts 142°
2026-04-25 02:48 11.75633 123.38998 16812 ft 312 kts 142°
2026-04-25 02:48 11.73901 123.40292 16508 ft 310 kts 143°
2026-04-25 02:49 11.72147 123.41582 16207 ft 310 kts 144°
2026-04-25 02:49 11.70415 123.42847 15907 ft 307 kts 144°
2026-04-25 02:49 11.68702 123.44107 15591 ft 294 kts 144°
2026-04-25 02:49 11.67098 123.45291 15297 ft 280 kts 144°
2026-04-25 02:50 11.65530 123.46450 15015 ft 277 kts 144°
2026-04-25 02:50 11.63985 123.47591 14739 ft 274 kts 144°
2026-04-25 02:50 11.62465 123.48714 14463 ft 271 kts 144°
2026-04-25 02:50 11.60946 123.49837 14185 ft 269 kts 144°
2026-04-25 02:51 11.59427 123.50958 13907 ft 268 kts 144°
2026-04-25 02:51 11.57916 123.52075 13629 ft 266 kts 144°
2026-04-25 02:51 11.56422 123.53177 13353 ft 265 kts 144°
2026-04-25 02:51 11.54949 123.54263 13081 ft 264 kts 144°
2026-04-25 02:52 11.53461 123.55360 12805 ft 263 kts 144°
2026-04-25 02:52 11.51967 123.56458 12527 ft 263 kts 144°
2026-04-25 02:52 11.50494 123.57539 12254 ft 262 kts 144°
2026-04-25 02:52 11.49019 123.58621 11980 ft 262 kts 144°
2026-04-25 02:53 11.47545 123.59703 11705 ft 261 kts 144°
2026-04-25 02:53 11.46080 123.60777 11432 ft 261 kts 144°
2026-04-25 02:53 11.44608 123.61856 11157 ft 261 kts 144°
2026-04-25 02:53 11.43136 123.62936 10882 ft 260 kts 144°
2026-04-25 02:54 11.41663 123.64016 10606 ft 260 kts 144°
2026-04-25 02:54 11.40205 123.65084 10334 ft 257 kts 144°
2026-04-25 02:54 11.38766 123.66137 9837 ft 254 kts 144°
2026-04-25 02:54 11.37345 123.67178 9335 ft 252 kts 143°
2026-04-25 02:55 11.35923 123.68219 8828 ft 250 kts 144°
2026-04-25 02:55 11.34532 123.69241 8330 ft 248 kts 144°
2026-04-25 02:55 11.33138 123.70264 7828 ft 246 kts 144°
2026-04-25 02:55 11.31755 123.71279 7326 ft 245 kts 144°
2026-04-25 02:56 11.30390 123.72275 6828 ft 243 kts 144°
2026-04-25 02:56 11.29032 123.73267 6329 ft 242 kts 144°
2026-04-25 02:56 11.27660 123.74273 5823 ft 240 kts 143°
2026-04-25 02:56 11.26357 123.75314 5322 ft 239 kts 143°
2026-04-25 02:57 11.25038 123.76310 4826 ft 238 kts 143°
2026-04-25 02:57 11.23710 123.77293 4377 ft 234 kts 144°
2026-04-25 02:57 11.22428 123.78237 4127 ft 223 kts 144°
2026-04-25 02:57 11.21189 123.79150 3862 ft 214 kts 144°
2026-04-25 02:58 11.20003 123.80023 3598 ft 206 kts 144°
2026-04-25 02:58 11.18862 123.80862 3388 ft 197 kts 144°
2026-04-25 02:58 11.17774 123.81663 3197 ft 189 kts 144°
2026-04-25 02:58 11.16732 123.82429 3007 ft 181 kts 144°
2026-04-25 02:59 11.15735 123.83162 2860 ft 172 kts 144°
2026-04-25 02:59 11.14785 123.83862 2713 ft 164 kts 144°
2026-04-25 02:59 11.13816 123.84398 2550 ft 157 kts 172°
2026-04-25 02:59 11.12771 123.84462 2428 ft 148 kts 178°
2026-04-25 03:00 11.11792 123.84686 2286 ft 141 kts 161°
2026-04-25 03:00 11.10890 123.85011 2141 ft 135 kts 160°
2026-04-25 03:00 11.10024 123.85326 2042 ft 125 kts 160°
2026-04-25 03:00 11.09194 123.85627 1981 ft 131 kts 160°
2026-04-25 03:01 11.08297 123.85951 1868 ft 141 kts 160°
2026-04-25 03:01 11.07325 123.86182 1648 ft 147 kts 184°
2026-04-25 03:01 11.06460 123.85742 1425 ft 140 kts 228°
2026-04-25 03:01 11.06062 123.84892 1262 ft 126 kts 250°
2026-04-25 03:02 11.05775 123.84081 1102 ft 120 kts 250°
2026-04-25 03:02 11.05490 123.83266 1026 ft 124 kts 252°
2026-04-25 03:02 11.05228 123.82430 1007 ft 124 kts 252°
2026-04-25 03:02 11.04995 123.81611 971 ft 114 kts 265°
2026-04-25 03:03 11.05224 123.80895 945 ft 104 kts 312°
2026-04-25 03:03 11.05858 123.80590 850 ft 110 kts
2026-04-25 03:03 11.06570 123.80657 1034 ft 104 kts
2026-04-25 03:03 11.07332 123.80608 1060 ft 121 kts 342°
2026-04-25 03:04 11.08185 123.80334 1053 ft 129 kts 342°
2026-04-25 03:04 11.09056 123.80093 1007 ft 127 kts 345°
2026-04-25 03:04 11.09887 123.79920 1056 ft 117 kts 354°
2026-04-25 03:05 11.11458 123.79936 1176 ft 114 kts
2026-04-25 03:05 11.12291 123.79858 1057 ft 119 kts 350°
2026-04-25 03:05 11.13093 123.79670 858 ft 118 kts 343°
2026-04-25 03:05 11.13862 123.79411 572 ft 118 kts 339°
2026-04-25 03:06 11.14613 123.79118 360 ft 112 kts 339°
2026-04-25 03:06 11.15325 123.78839 174 ft 109 kts 338°
2026-04-25 03:06 11.16006 123.78566 65 ft 86 kts 338°
2026-04-25 03:06 11.16304 123.78444 65 ft 25 kts 326°
2026-04-25 03:07 11.16369 123.78427 65 ft 4 kts 135°
2026-04-25 03:07 11.16314 123.78449 65 ft 17 kts 161°
2026-04-25 03:07 11.16152 123.78508 65 ft 23 kts 161°
2026-04-25 03:07 11.16012 123.78564 65 ft 19 kts 158°
2026-04-25 03:08 11.15895 123.78610 65 ft 14 kts 159°
2026-04-25 03:08 11.15825 123.78655 65 ft 10 kts 113°
2026-04-25 03:08 11.15804 123.78693 65 ft 3 kts 139°
2026-04-25 03:08 11.15793 123.78700 65 ft 1 kts 155°
2026-04-25 03:09 11.15785 123.78702 65 ft 4 kts 157°
2026-04-25 03:09 11.15783 123.78737 65 ft 4 kts 66°
2026-04-25 03:09 11.15787 123.78748 65 ft 0 kts 68°